Theta_e
327 322 326 322 306 304 300 302 309 308 310 313 314 313 312 311 308 306 318 318 324 323 325 327 332 335 337 338 335 334 332 333 331 329 328 329 329 329 328 327 326 326 325 325 324 323 322 321 320
319 320 322 315 299 297 298 305 305 308 311 313 311 311 311 308 311 312 314 320 322 321 324 327 333 335 337 335 334 333 332 332 329 328 328 329 328 328 327 326 325 325 324 323 323 322 321 320 320
319 319 312 306 301 295 298 305 309 310 311 311 309 309 308 308 312 313 318 320 323 324 326 329 333 335 335 334 334 332 331 330 327 328 326 326 326 327 325 325 324 323 323 322 321 321 319 319 319
317 317 313 303 300 303 304 309 313 309 309 310 309 305 307 310 314 317 319 321 322 324 326 330 332 334 334 333 332 331 329 329 326 326 326 325 325 325 324 323 323 322 321 321 320 319 318 318 318
317 313 302 300 302 307 310 312 314 309 310 310 308 305 304 310 315 318 319 320 321 322 324 328 330 331 332 332 330 329 328 327 325 324 324 324 323 323 322 322 321 320 319 319 319 318 317 316 316
308 310 300 298 300 307 308 312 313 312 311 309 308 306 305 312 315 317 318 320 321 321 323 324 324 326 330 331 329 327 326 325 324 323 322 322 322 322 321 320 318 318 317 317 317 316 315 314 314
305 304 300 301 302 304 308 312 309 310 309 308 310 306 306 309 316 317 318 319 320 321 321 323 323 323 325 328 328 328 326 324 323 322 321 320 320 320 319 317 316 315 315 315 314 314 313 312 311
311 307 301 304 303 304 310 311 313 312 308 309 310 306 305 309 316 316 316 317 318 319 319 320 321 324 327 325 324 324 324 322 320 319 317 318 317 317 317 317 315 314 312 312 312 311 310 308 307
314 302 299 303 304 307 312 310 311 310 308 308 308 307 308 313 315 314 313 314 314 315 317 319 319 322 326 323 320 320 320 318 317 315 313 312 315 314 315 315 313 312 311 309 308 306 303 302 301
307 302 302 309 310 308 310 311 309 307 307 306 305 306 311 313 312 310 309 309 311 313 315 317 318 320 318 319 320 320 318 316 315 314 314 313 313 312 311 310 310 308 305 304 302 299 296 299 297
306 302 307 308 310 311 309 309 309 308 306 310 307 305 310 311 311 309 309 310 310 312 313 315 317 319 316 317 319 319 318 316 315 314 313 312 311 310 310 308 306 304 303 297 297 297 297 297 296
302 306 307 308 309 309 308 310 305 306 308 310 310 309 310 309 309 309 309 309 309 310 312 313 315 317 317 318 316 318 316 315 314 313 312 311 310 309 307 305 304 302 298 298 298 297 297 296 295
302 305 306 308 308 309 311 308 308 308 309 308 309 309 309 309 310 311 311 310 309 306 306 308 310 313 317 317 316 317 316 313 310 310 310 309 308 307 306 303 301 299 298 298 297 297 296 296 295
304 305 306 307 308 308 306 308 307 310 310 307 307 308 310 309 310 310 309 309 308 307 306 304 302 305 310 317 317 316 315 313 308 308 308 307 306 305 304 302 299 298 298 298 298 297 297 296 296
305 301 304 306 307 307 308 304 304 310 309 308 307 308 308 309 310 309 310 309 309 308 307 303 302 302 305 312 316 315 314 313 308 305 306 305 303 302 301 300 299 298 298 298 298 297 297 297 296
300 301 296 302 306 305 305 301 309 310 308 307 308 308 306 308 309 310 310 309 310 308 306 304 301 303 305 310 313 314 313 311 311 308 305 305 304 303 301 300 299 299 298 298 298 298 297 297 296
298 292 295 298 305 304 303 302 306 308 307 308 308 308 306 306 308 310 309 309 310 309 306 303 301 303 305 310 311 312 312 311 311 311 307 306 304 303 302 302 301 300 299 298 298 298 297 297 296
292 292 295 296 301 302 301 302 304 304 306 307 308 308 308 306 306 308 309 309 309 309 307 304 301 301 305 309 310 310 310 311 311 310 309 308 306 304 303 302 302 300 299 299 299 298 298 297 297
296 295 294 298 298 300 300 301 304 307 304 305 307 309 308 308 310 308 308 309 308 309 307 305 302 300 304 306 306 306 306 308 309 310 309 308 307 305 303 303 302 301 300 299 300 300 299 298 298
296 295 294 295 296 296 298 298 302 305 306 307 308 308 309 310 310 309 308 308 307 307 307 306 303 301 301 305 306 305 306 307 308 309 309 308 307 306 304 303 303 302 301 300 300 300 298 299 300
295 293 294 293 294 295 294 294 297 301 304 306 308 310 310 309 309 309 308 307 308 307 307 307 306 303 301 302 303 304 302 304 304 305 306 307 307 306 305 304 303 303 302 300 301 300 299 298 300
291 298 296 293 292 288 292 286 295 298 299 301 304 305 307 309 311 311 309 308 308 308 310 308 307 305 303 302 300 299 298 297 299 303 304 305 306 306 306 305 304 304 302 301 301 301 300 299 297
292 298 295 293 292 290 290 287 292 295 294 297 299 301 303 305 308 308 310 310 310 311 310 309 308 307 304 302 301 299 298 300 302 301 302 303 305 305 306 306 305 304 303 302 301 301 300 300 298
296 294 293 293 291 284 289 289 290 294 294 295 297 298 299 300 300 301 307 311 311 312 312 310 308 306 306 302 301 300 300 300 300 300 299 301 302 303 304 305 305 305 304 303 302 302 301 299 299
295 291 284 283 284 282 286 286 290 294 295 294 295 296 297 298 299 300 300 301 308 310 310 309 308 306 305 303 302 301 301 301 301 300 299 299 300 300 301 302 303 304 304 304 303 302 301 300 298
292 291 285 278 280 282 283 282 289 292 294 294 295 296 298 298 299 300 300 301 302 306 309 308 307 306 305 304 302 302 302 302 302 301 301 300 300 300 301 301 301 302 303 303 303 302 301 300 299
291 288 293 284 280 281 284 288 291 292 293 294 294 296 297 298 299 300 301 301 302 303 305 307 306 306 305 303 303 303 302 301 301 302 302 301 301 300 300 300 300 300 300 300 301 300 300 299 299
291 293 284 285 279 278 282 284 287 289 290 292 294 295 296 297 298 300 300 301 301 303 304 304 305 304 305 304 303 303 303 302 302 301 300 300 300 300 298 298 298 298 298 298 298 298 299 298 298
287 287 288 288 285 281 280 284 292 292 292 293 294 296 297 297 297 297 299 301 301 302 302 302 302 302 303 303 302 302 302 302 301 300 300 300 299 299 298 297 296 296 296 296 296 296 297 296 296
291 290 289 284 280 283 283 285 290 295 294 295 294 295 296 297 297 297 297 299 301 301 301 301 301 300 301 301 300 300 301 300 299 299 299 300 299 299 298 297 296 295 295 295 294 294 294 294 294
Wind_Speed
16 9 1 3 7 5 10 8 6 5 6 4 4 3 8 10 8 5 9 8 12 10 8 9 7 8 10 16 19 18 16 18 16 14 13 14 15 15 16 16 15 17 17 17 18 18 18 18 18
11 9 4 4 6 9 8 8 8 8 9 7 5 2 1 7 7 11 10 10 10 9 9 9 9 6 15 17 18 17 18 17 15 12 13 14 14 16 15 16 15 16 17 17 17 17 17 17 17
9 7 9 8 12 12 8 6 9 9 7 5 4 2 2 5 6 13 14 12 11 9 10 11 9 11 14 16 17 17 17 15 13 13 13 13 14 14 16 15 16 16 16 16 17 17 16 16 16
5 5 5 9 11 11 7 5 8 11 4 2 1 6 7 3 10 8 14 12 11 10 12 12 12 11 13 15 17 18 16 15 11 13 13 13 13 14 15 15 16 16 15 16 16 16 16 16 16
6 5 8 9 12 4 2 4 8 10 8 6 5 6 5 6 7 14 13 11 11 10 13 12 13 12 9 14 17 17 16 13 12 12 13 12 13 14 14 14 15 15 15 15 15 15 15 15 15
5 6 9 10 12 7 4 3 9 10 6 6 5 8 6 11 13 14 12 11 11 10 12 11 12 11 8 12 16 16 17 11 12 12 12 12 12 14 14 14 14 14 14 14 14 15 15 14 14
10 8 12 9 9 7 6 9 8 7 7 5 2 6 6 12 13 12 12 10 9 10 8 9 6 8 4 10 13 14 19 13 11 12 12 12 11 12 13 13 13 13 13 13 13 14 14 14 14
7 8 16 10 8 10 8 11 5 9 7 4 0 4 6 16 17 13 11 10 9 9 9 9 9 4 8 11 13 15 18 17 14 14 14 13 13 10 11 10 11 12 12 12 12 13 13 13 13
4 10 11 15 8 6 10 11 5 3 6 4 5 3 5 21 18 14 12 10 10 8 10 10 11 6 9 11 11 13 16 16 13 11 5 4 6 7 8 12 10 11 11 11 11 11 10 10 11
9 11 15 3 3 3 11 12 10 7 9 8 8 7 13 18 17 17 14 13 13 12 11 10 12 10 4 9 8 8 9 7 6 6 7 4 5 8 10 11 12 11 11 10 10 8 4 4 5
10 14 9 2 2 2 8 9 6 9 10 10 13 14 17 18 17 15 14 13 14 14 11 12 12 12 7 6 4 4 4 5 5 6 5 5 6 6 4 5 5 5 2 4 4 3 5 6 5
11 15 5 1 2 4 9 6 6 10 2 5 4 19 18 18 18 16 15 14 14 14 14 12 12 11 10 5 4 5 5 5 4 6 6 5 3 4 4 3 4 3 2 3 3 3 4 5 5
16 10 7 3 4 6 5 10 10 12 7 6 8 14 16 16 16 15 14 13 13 14 13 13 11 11 10 8 6 6 5 5 5 6 6 5 4 4 4 4 3 3 3 3 3 3 3 3 3
5 15 7 5 6 6 7 7 3 12 11 9 9 12 14 15 16 15 15 15 15 14 15 13 13 12 11 11 10 6 5 6 5 6 6 6 4 4 4 4 4 4 3 3 2 2 2 2 1
7 9 9 8 6 4 7 9 12 7 10 10 10 11 12 14 15 17 16 15 15 13 14 14 13 12 12 13 10 8 6 6 6 6 7 7 6 5 5 5 4 4 3 3 3 3 2 2 2
11 12 11 12 9 5 8 12 15 10 10 11 11 11 11 13 16 16 15 15 15 14 14 13 11 13 13 13 10 8 7 7 7 6 7 9 8 7 6 5 5 5 4 4 4 3 3 3 3
13 11 18 9 11 6 12 10 9 6 9 11 11 11 11 12 15 16 16 16 15 15 15 15 14 13 14 13 10 9 9 8 7 7 7 9 9 8 7 6 5 6 5 5 4 4 4 4 4
14 18 12 17 9 10 12 16 8 8 10 12 11 12 12 14 17 17 17 16 15 15 15 15 13 14 13 10 9 8 8 8 8 8 8 10 9 10 8 6 6 7 5 6 5 6 5 5 4
15 14 16 11 5 7 16 16 16 14 10 11 12 13 14 14 14 16 17 17 16 16 17 17 16 15 12 10 9 9 9 9 9 8 11 10 10 11 10 7 8 8 7 7 7 6 6 5 4
9 12 14 4 2 4 10 15 14 16 18 16 15 14 14 14 15 16 19 18 18 18 18 18 17 17 14 10 9 8 9 8 8 8 9 11 11 11 10 9 7 8 6 7 7 7 5 5 4
16 14 13 7 5 5 7 18 20 20 19 16 16 16 16 16 16 17 18 20 19 19 19 18 17 17 15 13 9 7 5 5 7 8 8 10 12 12 11 11 9 8 7 6 8 8 8 5 5
18 8 3 7 5 7 3 6 5 10 12 14 15 15 16 15 14 15 18 19 19 19 16 17 17 17 15 16 13 15 9 8 8 8 8 8 12 12 11 11 10 9 7 8 7 7 7 7 6
14 11 9 6 4 4 7 6 6 6 10 11 11 9 10 11 12 15 15 16 18 16 16 16 16 16 15 15 14 11 12 8 5 6 9 10 9 11 11 11 11 10 8 9 9 8 9 7 7
13 10 6 4 5 8 13 9 6 7 5 8 7 4 3 6 7 7 8 11 13 13 13 15 16 17 16 17 17 15 13 10 7 7 6 6 7 8 11 11 10 10 9 10 9 9 10 9 7
14 16 6 6 7 8 3 5 13 3 4 6 5 3 0 2 6 5 8 9 11 12 13 13 15 16 16 16 15 16 14 12 11 9 8 8 7 7 10 12 11 9 10 10 9 9 10 9 9
23 19 6 7 6 7 2 9 5 2 1 1 1 1 2 4 3 3 2 6 9 9 12 13 13 13 15 15 15 13 13 8 9 10 8 8 7 8 9 10 10 11 10 10 9 8 8 9 8
18 16 1 6 2 1 6 6 6 4 5 6 6 6 6 6 6 5 4 3 4 7 9 11 11 11 12 13 12 13 12 12 10 10 9 7 8 7 8 9 11 11 11 11 10 8 9 9 9
8 9 6 3 6 5 5 6 7 11 11 8 9 8 7 7 7 7 7 5 4 4 6 8 9 10 10 11 10 10 10 11 10 8 10 9 8 9 8 9 10 10 11 11 11 9 9 10 8
6 8 7 5 3 3 2 5 5 17 14 12 9 6 7 7 7 7 7 6 6 5 5 5 6 7 7 7 8 9 8 9 9 9 9 9 9 9 10 10 10 11 11 11 11 11 10 12 11
8 15 15 7 6 3 1 1 8 15 14 10 9 7 5 6 6 7 7 7 6 6 5 4 4 5 6 7 7 7 7 8 9 10 10 9 10 10 10 10 11 11 11 11 12 12 11 12 12
Wind_Direction
286 279 259 273 248 229 253 219 259 196 188 69 38 328 34 37 4 43 125 134 124 131 133 123 72 31 123 122 109 104 103 96 100 95 102 92 90 90 88 85 84 82 79 77 74 73 71 70 68
303 307 233 251 258 252 236 219 203 211 81 111 111 126 115 77 68 120 133 136 134 141 152 118 82 61 114 112 108 107 102 98 101 99 97 93 90 87 88 87 85 83 80 78 76 74 72 71 69
281 291 260 226 235 242 256 158 221 93 135 162 131 353 40 74 107 135 112 139 136 142 142 104 91 86 114 108 109 107 99 102 104 103 101 96 92 89 88 89 87 85 83 83 80 77 75 73 70
297 206 233 251 243 246 285 159 119 150 150 186 52 120 103 13 129 113 134 143 131 137 130 116 89 85 115 113 112 108 102 105 99 100 101 95 93 89 90 90 87 85 85 84 82 79 75 72 69
250 262 227 238 268 330 264 296 172 175 145 159 189 122 86 112 110 129 143 147 140 142 126 118 84 70 111 115 113 107 104 105 111 107 105 101 99 95 94 90 88 88 87 85 82 79 75 70 65
264 272 237 226 218 229 213 228 193 185 148 125 198 143 105 129 146 145 145 151 148 139 147 118 98 71 66 110 115 116 109 101 108 108 107 102 97 97 96 95 91 88 88 86 84 81 77 71 65
246 239 251 253 229 194 201 165 209 186 166 170 37 181 105 158 150 150 151 145 150 148 150 146 122 79 100 96 116 116 109 105 103 95 88 98 93 90 98 96 92 89 86 87 84 80 77 71 63
279 260 243 248 243 217 155 175 202 192 160 88 234 191 149 163 154 155 149 148 156 162 163 141 140 108 120 113 99 105 107 100 93 85 76 74 78 83 97 108 91 90 86 83 82 79 75 69 61
269 247 237 232 233 213 158 182 181 61 145 190 146 30 80 142 154 154 158 160 156 167 171 151 150 121 116 114 104 105 109 109 101 89 100 197 126 126 106 66 91 88 83 78 78 76 73 86 73
236 232 243 305 218 242 182 202 167 188 184 185 169 117 132 152 166 167 174 172 174 169 170 165 159 133 101 134 152 153 130 139 147 153 175 131 113 59 80 72 76 85 84 83 84 81 96 49 48
222 248 245 257 277 232 183 209 177 220 204 213 201 163 156 169 177 178 183 180 179 171 170 175 169 156 146 154 174 159 140 149 156 157 165 130 130 153 135 138 139 130 149 117 110 82 54 47 42
247 238 265 51 174 198 189 193 209 229 97 30 100 150 164 180 182 185 188 176 177 175 169 178 176 176 168 163 192 163 153 164 168 172 168 159 164 162 148 144 126 141 113 120 99 84 76 75 65
234 243 234 231 214 229 220 211 228 211 148 114 126 152 173 183 186 186 188 176 176 178 174 178 182 185 189 184 191 195 179 187 176 172 183 179 169 169 159 147 157 142 150 143 129 125 105 89 63
233 233 233 217 210 197 208 208 213 213 146 154 159 176 181 187 188 183 189 182 181 182 177 176 185 189 191 197 192 196 178 189 179 182 180 192 178 177 172 164 166 165 172 161 162 155 148 126 111
245 224 219 213 199 205 224 216 223 153 181 180 187 177 185 190 188 193 188 189 183 185 178 178 182 185 190 199 196 198 182 194 189 190 183 189 184 180 173 176 177 178 175 172 167 184 201 204 200
212 242 221 204 184 166 219 251 204 163 184 201 193 184 186 192 196 194 187 192 184 182 182 179 181 183 187 194 191 191 191 201 202 194 190 195 193 185 189 184 191 178 180 198 204 208 216 237 228
209 223 223 172 206 164 206 246 126 182 208 215 196 197 190 189 200 194 189 191 186 184 182 182 183 187 186 188 192 189 197 205 206 198 199 196 199 196 200 201 198 184 196 206 214 213 241 226 235
205 223 230 226 182 216 209 242 160 192 216 220 214 204 200 200 200 194 192 186 185 186 183 184 184 186 187 183 190 193 198 209 207 207 206 199 202 200 206 206 203 194 206 212 213 230 218 260 263
249 221 231 222 103 240 234 245 244 193 202 223 222 219 209 209 196 189 191 187 188 189 186 186 186 187 184 188 188 197 203 206 212 212 213 207 205 200 204 210 205 200 212 215 213 221 237 237 249
240 222 229 98 169 235 254 251 253 244 235 221 228 220 221 213 197 189 187 190 196 193 191 188 192 189 191 187 190 198 204 211 214 213 217 214 208 206 205 210 206 204 213 218 216 218 220 237 220
217 227 227 253 165 226 286 270 248 237 234 226 231 232 223 212 207 191 193 194 195 198 196 193 191 191 190 188 186 195 212 208 213 214 213 215 214 209 208 212 212 208 211 215 212 213 217 230 206
212 212 226 173 201 246 211 286 205 221 204 223 223 227 228 229 220 199 195 200 198 202 197 194 194 192 189 190 189 193 199 198 211 209 212 211 213 215 211 216 217 214 206 220 215 213 220 218 238
227 164 180 177 223 301 204 256 236 161 212 206 213 224 231 235 222 213 202 201 203 197 196 193 195 191 186 193 195 195 207 209 199 200 209 209 206 217 214 212 218 217 216 217 221 214 215 223 226
137 133 135 162 222 246 235 228 257 198 179 160 177 192 222 227 226 233 230 200 204 193 193 190 195 192 189 194 199 201 208 211 199 194 206 206 208 206 218 213 217 216 219 219 218 223 217 218 221
185 170 173 206 212 238 57 226 264 177 248 284 267 289 25 184 193 200 200 209 214 195 189 191 195 196 192 196 201 209 211 207 210 200 205 204 204 207 209 211 212 218 218 222 219 220 221 219 223
198 192 177 197 206 208 108 226 233 24 356 288 208 129 129 118 126 128 186 205 205 210 188 195 197 197 194 198 205 209 212 212 211 208 209 214 212 212 206 206 212 217 221 220 223 223 222 221 221
197 216 202 108 60 201 198 242 261 158 133 140 125 128 104 89 76 72 85 128 176 192 200 201 196 203 201 202 203 210 209 211 212 210 216 222 221 213 212 206 208 215 216 219 217 221 223 221 222
224 161 182 227 174 220 192 259 220 179 165 151 138 121 104 91 81 71 66 75 100 150 181 192 202 202 207 200 207 213 212 215 218 220 219 222 228 221 211 213 212 214 215 216 218 221 221 222 221
167 189 208 229 225 255 206 233 334 171 162 153 135 113 98 83 71 65 65 73 85 102 136 171 192 200 205 198 210 216 217 219 221 223 228 227 227 228 221 218 217 215 214 212 216 220 222 220 224
253 213 199 201 188 237 341 266 318 150 151 143 137 124 98 87 79 73 73 73 80 89 113 144 167 184 197 200 208 214 219 220 224 228 231 230 231 230 231 225 225 220 218 215 215 218 219 221 220